When you browse on this site, cookies collect data to enhance your experience and personalize the content and advertising you see.
Visit our Privacy Policy to learn more. By continuing to use the site, you agree to this use of cookies and data.
  • In Sweden
  • List of Countries
  • For 7 days
  • Water Temperature
  • Satellite Maps
  • Weather Map
  • Weather Widgets
  • user-avatar
    Login

    Hourly Weather Vidin

    Today, 21 November, Wednesday

    Time Temperature Precipitation Wind Pressure Humidity
    00:00 0°C° 0.4 mm 4 mps 759 mmHg 96%
    01:00 0°C° 0.4 mm 4 mps 759 mmHg 96%
    02:00 0°C° 0.4 mm 4 mps 759 mmHg 95%
    03:00 0°C° 0.2 mm 4 mps 758 mmHg 95%
    04:00 0°C° 0.2 mm 4 mps 758 mmHg 95%
    05:00 +1°C° 0.2 mm 3 mps 757 mmHg 95%
    06:00 +1°C° 1.3 mm 3 mps 757 mmHg 95%
    07:00 +1°C° 1.3 mm 3 mps 757 mmHg 96%
    08:00 +1°C° 1.3 mm 3 mps 757 mmHg 96%
    09:00 +2°C° 1.5 mm 2 mps 758 mmHg 96%
    10:00 +3°C° 1.5 mm 2 mps 758 mmHg 96%
    11:00 +3°C° 1.5 mm 2 mps 758 mmHg 96%
    12:00 +3°C° 0.5 mm 2 mps 758 mmHg 96%
    13:00 +3°C° 0.5 mm 2 mps 759 mmHg 96%
    14:00 +3°C° 0.5 mm 2 mps 759 mmHg 96%
    15:00 +4°C° 0.2 mm 1 mps 759 mmHg 96%
    16:00 +4°C° 0.2 mm 1 mps 759 mmHg 96%
    17:00 +4°C° 0.2 mm 1 mps 760 mmHg 97%
    18:00 +4°C° 0.3 mm 1 mps 760 mmHg 97%
    19:00 +4°C° 0.3 mm 1 mps 760 mmHg 97%
    20:00 +4°C° 0.3 mm 1 mps 761 mmHg 97%
    21:00 +4°C° 0.3 mm 1 mps 761 mmHg 97%
    22:00 +4°C° 0.3 mm 1 mps 761 mmHg 97%
    23:00 +4°C° 0.3 mm 1 mps 762 mmHg 97%

    Tomorrow, 22 November, Thursday

    Time Temperature Precipitation Wind Pressure Humidity
    00:00 +5°C° 0.2 mm 1 mps 762 mmHg 97%
    01:00 +5°C° 0.2 mm 1 mps 762 mmHg 97%
    02:00 +5°C° 0.2 mm 1 mps 762 mmHg 97%
    03:00 +5°C° 0.2 mm 1 mps 762 mmHg 97%
    04:00 +5°C° 0.2 mm 1 mps 762 mmHg 96%
    05:00 +5°C° 0.2 mm 1 mps 762 mmHg 96%
    06:00 +5°C° 0.2 mm 1 mps 763 mmHg 96%
    07:00 +4°C° 0.2 mm 2 mps 763 mmHg 96%
    08:00 +4°C° 0.2 mm 2 mps 763 mmHg 95%
    09:00 +4°C° 0.2 mm 2 mps 763 mmHg 94%
    10:00 +4°C° 0.2 mm 2 mps 764 mmHg 93%
    11:00 +4°C° 0.2 mm 2 mps 764 mmHg 92%
    12:00 +4°C° 0.2 mm 2 mps 764 mmHg 92%
    13:00 +4°C° 0.2 mm 2 mps 764 mmHg 91%
    14:00 +5°C° 0.2 mm 2 mps 764 mmHg 90%
    15:00 +4°C° 0.1 mm 2 mps 764 mmHg 90%
    16:00 +4°C° 0.1 mm 2 mps 764 mmHg 91%
    17:00 +4°C° 0.1 mm 2 mps 764 mmHg 92%
    18:00 +5°C° 0 mm 1 mps 765 mmHg 92%
    19:00 +5°C° 0 mm 1 mps 765 mmHg 93%
    20:00 +5°C° 0 mm 1 mps 765 mmHg 93%
    21:00 +5°C° 0 mm 1 mps 766 mmHg 93%
    22:00 +5°C° 0 mm 1 mps 766 mmHg 93%
    23:00 +5°C° 0 mm 1 mps 766 mmHg 93%

    Day after tomorrow, 23 November, Friday

    Time Temperature Precipitation Wind Pressure Humidity
    00:00 +4°C° 0 mm 1 mps 766 mmHg 94%
    01:00 +4°C° 0 mm 1 mps 766 mmHg 94%
    02:00 +4°C° 0 mm 1 mps 766 mmHg 94%
    03:00 +4°C° 0 mm 1 mps 766 mmHg 94%
    04:00 +4°C° 0 mm 1 mps 766 mmHg 94%
    05:00 +3°C° 0 mm 0 mps 767 mmHg 94%
    06:00 +3°C° 0 mm 0 mps 767 mmHg 94%
    07:00 +4°C° 0 mm 1 mps 767 mmHg 94%
    08:00 +4°C° 0 mm 1 mps 767 mmHg 94%
    09:00 +5°C° 0 mm 1 mps 768 mmHg 91%
    10:00 +5°C° 0 mm 1 mps 768 mmHg 88%
    11:00 +6°C° 0 mm 1 mps 768 mmHg 85%
    12:00 +7°C° 0 mm 1 mps 768 mmHg 83%
    13:00 +7°C° 0 mm 1 mps 767 mmHg 81%
    14:00 +7°C° 0 mm 1 mps 767 mmHg 80%
    15:00 +7°C° 0 mm 1 mps 767 mmHg 81%
    16:00 +7°C° 0 mm 1 mps 767 mmHg 83%
    17:00 +6°C° 0 mm 1 mps 767 mmHg 85%
    18:00 +6°C° 0 mm 1 mps 767 mmHg 86%
    19:00 +6°C° 0 mm 1 mps 768 mmHg 87%
    20:00 +5°C° 0 mm 1 mps 768 mmHg 88%
    21:00 +5°C° 0 mm 1 mps 768 mmHg 88%
    22:00 +5°C° 0 mm 1 mps 768 mmHg 88%
    23:00 +5°C° 0 mm 1 mps 768 mmHg 88%

    24 November, Saturday

    Time Temperature Precipitation Wind Pressure Humidity
    00:00 +4°C° 0 mm 1 mps 768 mmHg 87%
    01:00 +4°C° 0 mm 1 mps 768 mmHg 86%
    02:00 +4°C° 0 mm 1 mps 768 mmHg 86%
    03:00 +4°C° 0 mm 1 mps 767 mmHg 85%
    04:00 +4°C° 0 mm 1 mps 767 mmHg 84%
    05:00 +3°C° 0 mm 1 mps 767 mmHg 83%
    06:00 +3°C° 0 mm 1 mps 766 mmHg 83%
    07:00 +3°C° 0 mm 1 mps 766 mmHg 83%
    08:00 +3°C° 0 mm 1 mps 766 mmHg 83%
    09:00 +4°C° 0 mm 1 mps 766 mmHg 78%
    10:00 +5°C° 0 mm 1 mps 766 mmHg 73%
    11:00 +6°C° 0 mm 1 mps 765 mmHg 69%
    12:00 +6°C° 0 mm 1 mps 765 mmHg 67%
    13:00 +7°C° 0 mm 1 mps 764 mmHg 66%
    14:00 +7°C° 0 mm 2 mps 763 mmHg 64%
    15:00 +7°C° 0 mm 1 mps 763 mmHg 67%
    16:00 +6°C° 0 mm 1 mps 763 mmHg 69%
    17:00 +6°C° 0 mm 1 mps 763 mmHg 71%
    18:00 +6°C° 0 mm 1 mps 763 mmHg 72%
    19:00 +6°C° 0 mm 1 mps 763 mmHg 73%
    20:00 +5°C° 0 mm 1 mps 763 mmHg 74%
    21:00 +5°C° 0 mm 1 mps 763 mmHg 74%
    22:00 +5°C° 0 mm 1 mps 763 mmHg 75%
    23:00 +5°C° 0 mm 1 mps 762 mmHg 76%

    25 November, Sunday

    Time Temperature Precipitation Wind Pressure Humidity
    00:00 +5°C° 0 mm 1 mps 762 mmHg 77%
    01:00 +4°C° 0 mm 1 mps 762 mmHg 77%
    02:00 +4°C° 0 mm 1 mps 761 mmHg 78%
    03:00 +3°C° 0 mm 0 mps 761 mmHg 78%
    04:00 +3°C° 0 mm 0 mps 761 mmHg 79%
    05:00 +3°C° 0 mm 0 mps 760 mmHg 79%
    06:00 +3°C° 0 mm 0 mps 760 mmHg 79%
    07:00 +3°C° 0 mm 0 mps 760 mmHg 80%
    08:00 +3°C° 0 mm 0 mps 760 mmHg 80%
    09:00 +4°C° 0 mm 0 mps 760 mmHg 76%
    10:00 +7°C° 0 mm 1 mps 759 mmHg 71%
    11:00 +8°C° 0 mm 1 mps 759 mmHg 67%
    12:00 +9°C° 0 mm 1 mps 759 mmHg 66%
    13:00 +10°C° 0 mm 1 mps 758 mmHg 64%
    14:00 +11°C° 0 mm 1 mps 757 mmHg 63%
    15:00 +10°C° 0 mm 1 mps 757 mmHg 66%
    16:00 +9°C° 0 mm 1 mps 757 mmHg 69%
    17:00 +8°C° 0 mm 1 mps 757 mmHg 72%
    18:00 +8°C° 0 mm 1 mps 757 mmHg 73%
    19:00 +7°C° 0 mm 0 mps 757 mmHg 74%
    20:00 +6°C° 0 mm 0 mps 757 mmHg 75%
    21:00 +7°C° 0 mm 1 mps 757 mmHg 76%
    22:00 +7°C° 0 mm 1 mps 756 mmHg 77%
    23:00 +7°C° 0 mm 1 mps 756 mmHg 78%

    26 November, Monday

    Time Temperature Precipitation Wind Pressure Humidity
    00:00 +7°C° 0 mm 1 mps 756 mmHg 78%
    01:00 +7°C° 0 mm 1 mps 755 mmHg 79%
    02:00 +7°C° 0 mm 1 mps 755 mmHg 79%
    03:00 +7°C° 0 mm 1 mps 755 mmHg 80%
    04:00 +7°C° 0 mm 1 mps 754 mmHg 81%
    05:00 +7°C° 0 mm 1 mps 754 mmHg 81%
    06:00 +7°C° 0.3 mm 1 mps 754 mmHg 83%
    07:00 +7°C° 0.3 mm 1 mps 753 mmHg 85%
    08:00 +7°C° 0.3 mm 1 mps 753 mmHg 86%
    09:00 +6°C° 0.6 mm 0 mps 753 mmHg 87%
    10:00 +6°C° 0.6 mm 0 mps 753 mmHg 88%
    11:00 +6°C° 0.6 mm 0 mps 753 mmHg 88%
    12:00 +6°C° 0.2 mm 0 mps 753 mmHg 88%
    13:00 +7°C° 0.2 mm 0 mps 752 mmHg 87%
    14:00 +7°C° 0.2 mm 0 mps 752 mmHg 87%
    15:00 +7°C° 0 mm 0 mps 752 mmHg 88%
    16:00 +7°C° 0 mm 0 mps 752 mmHg 89%
    17:00 +7°C° 0 mm 0 mps 752 mmHg 90%
    18:00 +6°C° 0 mm 0 mps 752 mmHg 91%
    19:00 +6°C° 0 mm 0 mps 752 mmHg 91%
    20:00 +6°C° 0 mm 0 mps 752 mmHg 92%
    21:00 +6°C° 0 mm 0 mps 752 mmHg 92%
    22:00 +6°C° 0 mm 0 mps 752 mmHg 92%
    23:00 +6°C° 0 mm 0 mps 752 mmHg 93%
    Show more